Grand Island, NE

7:50 AM CDT on August 25, 2016 (GMT -0500)
Central Nebraska Regional

Weather History for KGRI - September, 2013

Change the Weather History Date:

Friday, September 27, 2013

  Actual Average Record
Temperature  
Mean Temperature 73 °F 60 °F  
Max Temperature 91 °F 73 °F 95 °F (1956)
Min Temperature 54 °F 47 °F 30 °F (1964)
Degree Days  
Heating Degree Days 0 6  
Month to date heating degree days 14 84  
Since 1 July heating degree days 17 94  
Cooling Degree Days 8 2  
Month to date cooling degree days 182 106  
Year to date cooling degree days 1245 1020  
Growing Degree Days 28 (Base 50)    
Moisture  
Dew Point 58 °F    
Average Humidity 61    
Maximum Humidity 87    
Minimum Humidity 34    
Precipitation  
Precipitation 0.12 in 0.07 in 3.00 in (1945)
Month to date precipitation 1.91 2.03  
Year to date precipitation 21.32 22.80  
Snow  
Snow 0.00 in 0.00 in - ()
Month to date snowfall 0.0 0.1  
Since 1 July snowfall 0.0 0.1  
Since 1 September snowfall 0.0 0.1  
Snow Depth 0.00 in    
Sea Level Pressure  
Sea Level Pressure 29.68 in    
Wind  
Wind Speed 17 mph (South)    
Max Wind Speed 31 mph    
Max Gust Speed 37 mph    
Visibility 10 miles    
Events Rain , Thunderstorm    
T = Trace of Precipitation, MM = Missing Value Source: NWS Daily Summary

Daily Weather History Graph

Daily Weather History Graph

Search for Another Location

Airport or City:

Trip Planner

Search our weather history database for the weather conditions in past years. The results will help you decide how hot, cold, wet, or windy it might be!

Date:

Astronomy

Sep. 27, 2013 Rise Set
Actual Time 7:26 AM CDT 7:21 PM CDT
Civil Twilight 6:58 AM CDT 7:48 PM CDT
Nautical Twilight 6:26 AM CDT 8:20 PM CDT
Astronomical Twilight 5:54 AM CDT 8:53 PM CDT
Moon 12:20 AM CDT (9/27) 3:03 PM CDT (9/27)
Length of Visible Light 12h 50m
Length of Day
11h 55m
Last Quarter, 45% of the Moon is Illuminated
Sep 27
Last Quarter
Oct 4
New
Oct 11
First Quarter
Oct 18
Full
Oct 26
Last Quarter

Hourly Weather History & Observations

Time (CDT) Temp. Heat Index Dew Point Humidity Pressure Visibility Wind Dir Wind Speed Gust Speed Precip Events Conditions
12:53 AM 73.9 °F - 61.0 °F 64% 29.68 in 10.0 mi SSE 19.6 mph 29.9 mph N/A   Clear
1:53 AM 73.9 °F - 60.1 °F 62% 29.68 in 10.0 mi SSE 18.4 mph 27.6 mph N/A   Clear
2:53 AM 73.9 °F - 60.1 °F 62% 29.67 in 10.0 mi SSE 19.6 mph 28.8 mph N/A   Clear
3:53 AM 73.0 °F - 59.0 °F 61% 29.66 in 10.0 mi South 17.3 mph 27.6 mph N/A   Partly Cloudy
4:53 AM 71.1 °F - 59.0 °F 66% 29.66 in 10.0 mi SSE 17.3 mph 27.6 mph 0.00 in Rain Light Rain
5:07 AM 71.6 °F - 59.0 °F 64% 29.72 in 10.0 mi South 16.1 mph 23.0 mph 0.00 in Thunderstorm Mostly Cloudy
5:25 AM 71.6 °F - 59.0 °F 64% 29.71 in 10.0 mi South 18.4 mph 24.2 mph 0.00 in   Scattered Clouds
5:53 AM 71.1 °F - 57.9 °F 63% 29.65 in 10.0 mi South 15.0 mph 25.3 mph 0.00 in   Partly Cloudy
6:53 AM 71.1 °F - 57.0 °F 61% 29.66 in 10.0 mi South 16.1 mph 26.5 mph N/A   Clear
7:53 AM 72.0 °F - 55.0 °F 55% 29.68 in 10.0 mi South 18.4 mph 25.3 mph N/A   Clear
8:53 AM 72.0 °F - 55.0 °F 55% 29.69 in 10.0 mi SSE 13.8 mph 25.3 mph N/A   Clear
9:53 AM 77.0 °F - 55.0 °F 47% 29.70 in 10.0 mi South 18.4 mph - N/A   Clear
10:53 AM 78.1 °F - 55.0 °F 45% 29.71 in 10.0 mi South 20.7 mph 28.8 mph N/A   Clear
11:53 AM 81.0 °F 80.8 °F 55.9 °F 42% 29.70 in 10.0 mi South 12.7 mph 25.3 mph N/A   Clear
12:53 PM 87.1 °F 85.7 °F 55.9 °F 35% 29.69 in 10.0 mi South 17.3 mph 25.3 mph N/A   Clear
1:53 PM 86.0 °F 84.9 °F 57.0 °F 37% 29.69 in 10.0 mi SSE 12.7 mph - N/A   Clear
2:53 PM 87.1 °F 85.9 °F 57.0 °F 36% 29.67 in 10.0 mi South 13.8 mph 24.2 mph N/A   Clear
3:53 PM 89.1 °F 87.7 °F 57.0 °F 34% 29.66 in 10.0 mi South 18.4 mph 28.8 mph N/A   Clear
4:53 PM 89.1 °F 88.0 °F 57.9 °F 35% 29.65 in 10.0 mi SSE 13.8 mph 20.7 mph N/A   Clear
5:53 PM 88.0 °F 86.9 °F 57.9 °F 36% 29.63 in 10.0 mi SSE 21.9 mph 32.2 mph N/A   Clear
6:53 PM 82.9 °F 83.2 °F 60.1 °F 46% 29.65 in 10.0 mi SSE 18.4 mph 31.1 mph N/A   Clear
7:53 PM 81.0 °F 81.6 °F 60.1 °F 49% 29.68 in 10.0 mi SSE 17.3 mph 27.6 mph N/A   Partly Cloudy
8:44 PM 69.8 °F - 57.2 °F 64% 29.75 in 10.0 mi West 13.8 mph - N/A   Mostly Cloudy
8:53 PM 68.0 °F - 59.0 °F 73% 29.69 in 10.0 mi NW 16.1 mph - N/A   Mostly Cloudy
9:00 PM 68.0 °F - 59.0 °F 73% 29.73 in 10.0 mi North 5.8 mph 20.7 mph N/A   Overcast
9:53 PM 64.9 °F - 60.1 °F 84% 29.67 in 10.0 mi NNE 4.6 mph - 0.00 in   Overcast
10:31 PM 77.0 °F - 59.0 °F 54% 29.67 in 10.0 mi SSE 20.7 mph 34.5 mph 0.00 in   Mostly Cloudy
10:53 PM 75.9 °F - 59.0 °F 56% 29.62 in 10.0 mi SSE 18.4 mph 29.9 mph 0.00 in   Scattered Clouds
11:53 PM 69.1 °F - 57.0 °F 65% 29.69 in 10.0 mi WNW 31.1 mph 36.8 mph N/A   Mostly Cloudy